FENGYUN 1C DEB

Satellite information

Favourite Embed

Satellite Type and Status

DEBRISIN ORBIT

Key statistics

Satellite FENGYUN 1C DEB at a glance.

Uptime

9498

Days in orbit

Revolutions

≈ 14.3

Per day

Orbit

SSO

Sun Synchronous Orbit

Inclination

99.2

Latest

Satellite identification and parameters

Extended collection of information and parameters for FENGYUN 1C DEB.

Object identification

Identified? True

Debris? True

Object name: FENGYUN 1C DEB

International designator: 1999-025ABC

Object number (NORAD): 30341

Object ID (CCSDS): 30341

Country: PEOPLES REPUBLIC OF CHINA (PRC)

Current information (Y/N): Y

RCS size: SMALL

Orbital parameters

Period: 100.638 minutes

Inclination: 99.2254 deg

SMA: 7166.98 km

Apoapsis: 826.612 km

Periapsis: 751.078 km

RAAN: 5.0459 deg

Eccentricy: 0.0052696

Argument of periapsis: 332.6194 deg

Mean anomaly: 84.2074 deg

Mean motion: 14.30864358 rev/day

Mean motion (dot): 0.00005664 rev/day2

B* drag term: 0.002143 1/REarth

Two-line elements (TLE)

Creation date: May 11, 2025, 2:40 a.m.

Reference frame: TEME

Reference center: EARTH

Epoch: May 10, 2025, 1:47 p.m. UTC

TLE line 0: 0 FENGYUN 1C DEB

TLE line 1: 1 30341U 99025ABC 25130.57499363 .00005664 00000-0 21430-2 0 9996

TLE line 2: 2 30341 99.2254 5.0459 0052696 332.6194 84.2074 14.30864358939876

Live tracking on map

Real-time ground track for satellite FENGYUN 1C DEB.

In-orbit conjunctions

A list of the most updated potential collisions computed for object FENGYUN 1C DEB.

Target Orbit TCA Probability of collision Miss distance Type
CZ-6A DEB LEO 2024-11-11 05:05:30 0.0001371392 164.0 (m) DEBRIS
CZ-6A DEB LEO 2024-10-14 19:42:37 0.0001390691 182.0 (m) DEBRIS

Associated space launch

Chinese polar orbiting meteorological satellite

FENGYUN 1C DEB was lifted into orbit during the mission ‘Long March 4B | Feng Yun 1C’, on board a Long March 4B space rocket.

The launch took place on May 10, 1999, 1:33 a.m. from Launch Complex 7.

For more information about the launch, click the button.

Launch to space Long March 4B | Feng Yun 1C
Long March 4B | Feng Yun 1C

Agency: N/A

Status: Launch Successful

Launch date: May 10, 1999, 1:33 a.m. UTC

Rocket: Long March 4B

Launch pad: Launch Complex 7

Location: Taiyuan Satellite Launch Center, People's Republic of China

...

Latest news about this satellite

There are no fresh news available about this satellite. Check back as we update our databases every day.


Newsletter sign-up

Weekly statistics, charts and insights to help you stay on top of the space industry.